📊 Raw Sensor Data

Showing records 40101 to 40125 of 84,957 total

ID Distance (ft) Battery V Battery A Int Temp (°F) Int Humid (%) Ext Temp (°F) Solar V RSSI SNR Time Stamp
44869 15.5 3.96 0 88 44 90 5.10 -69 7 06/29/2025 11:15 AM
44868 15.5 3.96 0 87 43 91 5.10 -69 8 06/29/2025 11:00 AM
44867 15.5 4.11 0 86 43 86 5.10 -67 8 06/29/2025 10:45 AM
44866 15.5 3.95 0 84 44 85 5.10 -68 7 06/29/2025 10:30 AM
44865 15.5 3.96 0 84 43 82 5.10 -70 8 06/29/2025 10:15 AM
44864 15.5 3.94 0 83 43 84 5.10 -69 8 06/29/2025 10:00 AM
44863 15.6 4.12 0 82 44 84 5.10 -71 7 06/29/2025 09:45 AM
44862 15.6 3.94 0 81 44 83 5.10 -69 7 06/29/2025 09:30 AM
44861 15.5 3.94 0 80 44 83 5.10 -70 8 06/29/2025 09:15 AM
44860 15.5 3.94 0 78 44 82 5.10 -70 7 06/29/2025 09:00 AM
44859 15.5 3.94 0 77 44 81 5.10 -70 7 06/29/2025 08:45 AM
44858 15.6 3.94 0 76 44 81 5.10 -69 8 06/29/2025 08:30 AM
44857 15.5 3.94 0 72 43 78 5.10 -69 7 06/29/2025 08:00 AM
44856 15.5 3.95 0 71 43 77 5.10 -69 8 06/29/2025 07:45 AM
44855 15.5 4.04 45 70 42 77 4.50 -69 8 06/29/2025 07:30 AM
44854 15.5 3.94 15 68 42 75 4.50 -68 8 06/29/2025 07:15 AM
44853 15.4 3.98 8 66 42 72 4.50 -67 8 06/29/2025 07:00 AM
44852 15.4 3.96 0 64 42 69 4.50 -67 8 06/29/2025 06:45 AM
44851 15.3 3.85 0 62 42 68 4.50 -68 8 06/29/2025 06:30 AM
44850 15.3 3.84 -30 61 43 65 4.50 -67 8 06/29/2025 06:15 AM
44849 15.3 3.82 -9 60 43 62 4.50 -68 8 06/29/2025 06:00 AM
44848 15.3 3.92 -9 59 43 61 2.00 -68 8 06/29/2025 05:45 AM
44847 15.2 3.83 -5 59 43 61 1.60 -66 8 06/29/2025 05:30 AM
44846 15.3 3.93 -5 59 43 61 0.10 -68 8 06/29/2025 05:15 AM
44845 15.2 3.83 -5 59 43 61 0.00 -67 8 06/29/2025 05:00 AM